{"data":{"norad_id":53167,"epoch":"2026-09-19T19:11:07.928448Z","epoch_age_seconds":132738,"freshness":"FRESH","line1":"1 53167U 22083AM  26262.79939732  .00000622  00000+0  28737-4 0  9994","line2":"2 53167  53.1621 351.5805 0001029  82.9709 277.1411 15.35401394230942","mean_motion":15.35401394,"eccentricity":0.0001029,"inclination_deg":53.1621,"raan_deg":351.5805,"arg_perigee_deg":82.9709,"mean_anomaly_deg":277.1411,"bstar":2.8737e-5,"rev_number":23094,"period_min":93.786550255014,"perigee_km":459.0248876186,"apogee_km":460.43212033932,"semimajor_km":6837.865503979,"source":"CELESTRAK","updated_at":"2026-09-20T09:00:40.184905Z"}}